Temperature
23 22 21 20 20 19 19 19 19 19 19 19 19 18 18 18 18 18 18 18 18 18 18 18 18 18 18 18 18 18 18 18 18 18 18 18 18 18 17 17 17 17 17
23 22 21 21 20 20 19 19 19 19 19 19 19 19 18 18 18 18 18 18 18 18 18 18 18 18 18 18 17 17 18 18 18 18 18 18 18 18 18 17 17 17 17
24 22 22 21 20 20 20 20 19 19 19 19 19 19 19 18 18 18 18 18 18 18 18 18 18 18 18 18 18 17 17 18 18 18 18 19 19 18 18 17 17 17 17
24 23 22 21 21 20 20 20 20 20 19 19 19 19 19 19 19 18 18 18 18 18 18 18 18 18 18 18 18 17 17 17 18 18 18 18 18 18 18 18 17 17 16
25 23 23 22 21 21 20 20 20 20 20 19 19 19 19 19 19 18 18 18 18 18 18 18 18 18 18 18 18 18 17 17 18 18 18 17 17 18 18 18 18 17 17
25 24 23 22 22 21 21 20 20 20 20 20 19 19 19 19 19 18 18 18 18 18 18 18 18 18 18 18 18 17 17 17 17 17 18 18 18 18 18 18 18 17 17
25 24 23 22 22 21 21 20 20 20 20 20 19 19 19 19 19 18 18 18 18 18 18 18 18 18 18 18 17 18 17 17 17 17 17 17 17 17 18 18 18 17 17
25 24 23 22 22 21 21 21 20 20 20 20 20 19 19 19 19 19 18 18 18 18 18 18 18 18 18 17 17 17 17 17 17 17 17 17 17 17 17 17 17 18 18
25 24 24 23 22 22 21 21 21 20 20 20 20 19 19 19 19 19 18 18 18 18 18 18 18 18 18 17 17 17 17 17 17 17 17 17 17 17 17 17 17 17 17
25 24 24 23 23 22 22 21 21 21 21 20 20 19 19 19 19 19 19 18 18 18 18 18 18 18 17 17 17 16 17 16 16 16 16 16 17 16 16 16 16 16 17
25 24 24 23 23 22 22 21 21 21 20 20 20 20 19 19 19 19 19 18 18 18 18 18 18 17 17 17 17 16 16 16 16 16 16 16 16 16 16 16 16 16 16
25 24 24 23 23 22 22 21 21 21 20 20 20 20 20 19 19 19 19 19 18 18 18 17 17 17 17 17 16 16 16 16 16 16 16 15 15 15 16 16 16 16 15
24 24 24 23 22 22 22 21 21 20 20 20 20 20 19 19 19 19 19 18 18 18 18 17 17 17 17 16 16 16 16 16 15 15 15 15 15 15 15 15 15 15 15
24 24 23 22 22 22 21 21 21 20 20 20 20 20 19 19 19 19 19 18 18 18 18 18 17 17 17 16 16 16 16 16 15 15 15 15 15 15 15 15 15 15 15
23 23 23 22 22 21 21 21 20 20 20 20 20 19 19 19 19 19 19 18 18 17 18 17 17 17 17 16 16 16 16 15 15 15 15 15 15 15 15 15 15 15 15
23 22 22 21 21 21 20 20 20 20 20 20 19 19 19 19 19 18 18 18 18 17 17 17 17 16 16 16 16 16 15 15 15 15 15 15 15 15 15 15 15 15 14
23 22 21 21 21 20 20 20 20 20 20 20 19 19 19 19 18 18 18 18 18 17 17 17 17 16 16 16 16 16 16 15 15 15 15 15 15 15 14 15 15 15 15
22 21 21 21 20 20 20 20 19 19 19 19 19 19 19 18 18 18 18 17 17 17 17 17 16 16 16 16 16 16 16 15 15 15 15 15 14 14 14 14 14 14 14
21 21 20 20 20 20 19 19 19 19 19 19 19 18 18 18 18 18 17 17 17 17 16 16 16 16 16 16 16 16 15 15 15 15 14 14 14 14 14 14 14 14 14
20 20 20 20 19 19 19 19 19 18 18 18 18 18 18 18 17 17 17 17 17 16 16 16 16 16 16 16 16 15 15 14 14 14 14 14 14 14 14 14 14 14 14
19 19 19 19 19 18 18 18 18 18 18 18 17 17 17 17 17 17 17 16 16 16 16 16 15 15 15 15 15 15 15 14 14 14 14 14 14 14 14 14 14 14 13
19 18 18 18 18 18 18 17 18 17 17 17 17 17 17 16 16 16 16 16 16 15 15 15 15 15 15 15 15 15 15 14 14 14 14 14 14 14 14 14 14 14 13
18 18 17 17 17 17 17 17 17 17 17 16 16 16 16 16 16 16 16 15 15 15 15 15 15 15 14 15 15 14 14 14 14 14 14 14 14 13 13 13 13 13 13
17 17 17 17 16 16 16 16 16 16 16 16 16 15 15 15 15 15 15 15 15 15 15 15 15 14 14 14 14 14 14 14 14 13 13 13 13 13 13 13 13 12 12
16 16 16 16 16 16 16 16 16 16 15 15 15 15 15 15 15 15 14 14 14 14 14 14 14 14 14 14 14 14 13 13 13 13 13 13 13 13 13 12 12 12 12
16 16 16 15 15 16 16 16 16 15 15 15 15 15 15 14 14 14 14 14 14 14 14 13 13 13 13 13 13 13 13 13 13 13 13 12 12 12 12 12 12 12 12
Wind_Speed
11 11 11 10 9 8 8 7 6 6 5 4 4 3 3 3 2 2 2 2 1 2 1 1 2 1 1 1 2 2 3 2 2 2 2 3 3 2 2 2 2 2 2
12 12 11 11 10 10 9 8 8 7 6 5 4 3 2 2 2 2 2 2 2 2 2 1 2 1 1 2 2 2 2 2 2 2 2 2 3 3 2 2 2 2 1
13 13 13 12 11 10 10 8 8 8 7 6 5 4 3 3 3 3 3 2 2 2 1 1 1 1 2 1 2 2 3 2 2 2 2 2 1 1 3 2 2 2 1
12 13 13 13 12 11 10 9 8 8 7 7 6 6 5 4 3 3 2 2 2 2 2 2 2 2 1 1 3 2 3 3 2 2 2 2 2 2 1 3 3 2 2
13 13 13 13 12 11 10 10 9 9 8 8 7 7 6 4 4 3 3 3 2 2 2 3 2 2 2 1 2 1 3 2 3 2 2 2 3 4 3 2 2 2 2
12 12 12 12 11 11 10 10 10 9 9 9 8 8 6 5 4 4 4 4 3 2 2 3 2 2 2 2 2 3 3 2 2 3 3 3 2 2 3 3 3 2 2
12 13 13 13 12 12 11 10 10 10 9 9 9 8 8 7 6 5 4 4 3 2 2 2 2 2 2 2 3 3 2 3 3 3 3 3 3 2 3 3 3 2 2
11 12 13 13 12 12 12 11 11 10 10 9 9 8 8 7 5 5 4 4 3 2 2 2 3 3 3 3 2 3 3 3 3 4 3 3 3 3 3 4 4 4 3
10 10 11 12 12 12 12 12 11 10 10 9 9 8 8 7 5 5 5 4 3 3 3 3 3 3 3 3 3 3 3 3 4 3 4 3 2 3 3 4 4 4 4
9 10 9 10 10 11 11 11 11 10 10 9 9 8 8 8 7 6 5 4 4 3 3 4 4 3 3 3 4 4 3 3 3 2 2 3 3 3 3 3 4 4 4
9 9 8 9 9 9 10 10 10 10 9 9 9 8 8 8 7 7 6 6 5 4 4 4 4 4 4 4 4 4 3 4 3 3 3 3 3 3 3 3 4 4 4
8 8 8 8 8 8 9 10 10 10 9 9 9 8 8 7 8 7 7 6 5 5 4 4 4 4 5 5 5 4 4 4 5 5 4 4 3 3 4 3 4 4 4
7 7 8 8 7 7 8 9 9 10 10 9 9 8 8 8 8 7 6 6 5 5 5 5 4 4 4 5 5 5 5 5 5 5 5 5 4 4 4 5 4 4 4
6 6 7 7 7 7 7 7 8 9 9 9 9 8 8 8 7 7 6 6 6 6 5 5 5 5 5 5 6 6 6 6 6 5 5 5 5 5 5 5 5 5 5
5 6 6 6 6 6 6 7 7 8 8 9 8 8 8 7 7 7 7 6 6 6 6 5 5 5 5 5 5 6 6 6 5 5 5 5 4 3 4 4 4 4 5
6 6 5 5 6 6 7 7 7 7 8 8 8 7 7 7 7 7 6 6 6 5 5 5 5 5 4 2 3 5 5 5 5 5 5 5 5 5 5 4 5 5 6
5 6 6 5 5 6 7 7 7 7 8 8 7 6 6 6 6 6 6 6 6 5 5 5 5 4 3 4 4 5 5 5 5 5 5 6 4 5 5 6 8 8 7
5 5 5 5 4 5 6 6 6 7 7 7 6 6 6 6 5 5 5 5 5 5 5 5 4 4 3 4 4 4 6 6 6 6 6 5 4 4 4 6 6 6 6
3 4 4 4 3 4 4 6 6 6 6 6 5 6 5 5 5 5 5 4 4 4 4 4 4 4 3 3 4 4 5 5 6 6 5 5 5 2 3 6 6 6 6
2 2 3 3 3 3 4 6 6 6 6 5 5 5 5 5 5 5 4 3 3 3 3 3 2 3 3 3 4 5 4 4 4 4 5 4 4 2 3 5 6 6 6
2 2 3 3 3 3 5 5 5 5 5 4 5 5 5 5 5 4 3 4 3 3 2 2 2 2 2 3 4 4 4 4 4 4 4 2 3 3 5 7 6 6 7
3 4 4 3 3 4 5 5 5 5 5 5 5 5 4 4 4 4 4 3 3 4 3 2 2 2 2 3 4 6 5 4 4 4 3 1 3 5 6 6 5 6 7
4 4 4 4 4 4 4 5 5 5 6 6 5 5 4 4 4 4 4 3 3 3 2 2 2 2 2 3 5 7 6 5 4 3 2 2 3 5 6 7 7 6 5
3 4 5 5 4 4 4 4 4 4 5 5 5 5 5 4 4 3 3 3 3 3 2 2 2 2 2 2 2 3 4 5 5 4 4 6 6 6 5 4 4 5 4
2 3 4 4 4 4 4 3 3 3 4 4 4 4 4 4 3 3 1 2 2 2 2 2 2 2 2 0 2 1 1 2 1 3 3 4 3 4 4 4 4 4 4
2 3 3 4 4 4 3 2 2 2 3 4 4 4 3 3 3 3 3 4 3 5 3 2 2 0 1 2 1 1 1 1 1 3 3 3 4 4 4 4 4 4 4
Wind_Direction
183 180 182 182 181 182 183 186 187 177 182 183 191 183 180 185 178 173 160 178 175 159 197 150 154 215 152 191 193 187 182 204 205 204 194 196 198 195 196 213 220 192 195
182 183 186 188 188 187 188 189 192 188 190 182 192 191 188 189 179 176 163 191 187 193 180 187 211 197 184 200 205 205 228 198 197 241 241 212 187 191 193 196 202 225 219
188 185 189 190 191 193 195 194 194 193 196 190 189 182 182 199 186 187 185 192 193 196 207 206 240 243 244 202 226 221 225 218 206 230 266 276 272 167 168 193 195 216 243
193 189 189 191 193 194 192 195 192 195 196 197 201 201 197 197 199 200 187 188 194 204 207 216 233 254 251 223 241 213 242 239 225 207 239 273 306 284 226 186 169 187 218
194 192 193 192 193 192 191 191 189 193 196 201 201 209 209 205 201 196 181 205 202 212 220 219 230 246 254 250 260 251 258 240 250 246 234 226 230 243 263 254 225 206 212
193 191 190 189 192 191 193 191 188 194 197 202 205 211 211 214 214 213 203 210 201 208 210 216 230 241 255 244 247 249 238 252 266 270 260 248 244 245 248 256 254 246 229
190 188 188 189 192 193 194 192 190 196 199 203 207 210 212 213 217 224 214 229 221 212 198 225 234 247 244 242 242 235 251 243 245 253 260 263 267 277 272 270 273 264 246
188 189 189 191 193 196 197 196 193 196 198 201 204 208 211 215 214 216 228 220 234 232 209 229 236 240 239 242 235 236 231 231 236 244 255 257 255 260 263 270 277 272 251
183 186 188 191 193 197 198 198 194 197 199 200 201 204 209 217 217 209 220 224 225 224 217 229 234 238 235 243 244 238 231 227 233 233 225 243 247 252 259 261 267 274 277
177 179 183 189 192 194 195 198 196 198 199 200 204 201 203 207 210 216 220 227 226 229 225 229 233 233 229 226 231 226 220 220 223 240 258 264 261 259 256 253 255 260 268
175 176 181 185 187 190 191 193 195 198 200 201 202 204 202 202 204 208 215 218 225 223 224 226 223 222 221 220 219 230 214 219 226 233 230 238 263 258 252 251 255 255 258
176 175 176 178 183 189 192 193 196 199 201 200 199 202 204 206 208 206 208 209 213 216 216 219 217 217 216 215 213 220 218 224 229 231 231 236 238 245 259 259 257 258 255
178 179 179 181 186 192 197 197 199 201 199 195 196 197 200 202 206 207 203 202 207 211 213 210 212 217 221 216 212 213 215 221 233 235 233 237 240 248 255 258 259 257 253
183 189 187 187 191 194 196 198 200 199 195 192 195 198 203 205 205 203 203 203 204 206 209 211 212 213 222 223 218 213 216 221 229 234 236 239 237 240 249 251 255 260 261
189 197 197 192 193 192 193 198 200 197 196 193 196 201 204 204 205 203 204 202 202 205 207 208 211 215 219 225 222 219 218 219 225 228 234 238 236 256 262 268 263 260 257
199 199 198 192 193 194 194 192 194 193 193 195 199 199 200 200 202 202 198 196 200 204 204 210 215 219 221 172 199 226 222 219 224 233 240 233 220 224 229 256 272 277 265
210 207 205 200 202 204 198 193 192 190 190 193 195 195 198 200 201 196 189 192 195 196 204 210 212 214 204 174 192 221 223 222 229 237 245 251 228 223 239 227 227 240 245
219 215 212 204 203 202 195 187 182 183 185 185 188 191 194 194 190 186 187 190 196 202 208 212 214 209 195 173 193 219 223 229 235 237 237 245 250 251 256 254 250 252 244
215 212 216 207 194 187 181 176 173 172 176 180 183 183 182 180 176 178 183 188 193 201 207 207 209 207 190 163 186 216 225 226 235 240 237 240 243 240 255 252 255 261 261
191 191 190 177 170 169 166 171 171 169 174 176 179 177 175 171 173 175 181 181 184 194 204 197 197 196 202 176 184 219 226 229 237 239 234 231 253 259 255 254 259 263 268
142 151 155 152 152 155 155 158 157 161 161 158 164 166 167 166 166 166 168 169 170 173 189 193 200 198 203 190 190 216 234 240 248 252 250 225 165 225 247 258 262 270 277
126 134 134 129 127 137 142 139 141 145 147 157 163 164 165 166 159 156 158 162 166 170 182 188 209 205 194 198 204 206 230 273 250 260 267 238 176 220 235 245 262 268 267
120 120 121 120 117 120 129 134 134 144 153 155 159 160 157 158 155 158 161 167 174 185 189 194 206 224 218 193 188 198 208 228 239 255 293 285 243 234 228 230 247 255 262
118 120 124 118 107 103 105 113 123 141 147 154 160 162 160 157 152 163 173 183 187 194 198 210 220 224 219 229 218 208 199 204 225 250 238 228 233 239 259 253 238 249 263
107 115 117 113 105 98 95 99 116 135 146 153 163 167 161 152 150 154 165 181 161 171 199 218 227 239 242 320 11 287 250 265 273 272 258 255 256 255 260 266 268 267 265
109 112 113 111 110 108 98 90 106 136 156 161 169 170 165 162 168 161 141 78 97 95 82 30 314 135 68 95 80 55 36 323 284 264 260 273 279 279 282 283 280 273 274
Height
1528 1531 1533 1535 1537 1538 1539 1541 1542 1543 1544 1545 1546 1547 1548 1548 1549 1549 1549 1549 1549 1549 1549 1550 1549 1550 1550 1550 1551 1552 1552 1553 1553 1554 1554 1554 1554 1554 1554 1554 1554 1554 1554
1526 1529 1532 1534 1535 1537 1538 1539 1541 1542 1543 1544 1545 1546 1547 1548 1548 1548 1548 1548 1548 1549 1549 1549 1550 1550 1550 1550 1550 1550 1551 1552 1552 1553 1553 1553 1554 1553 1553 1553 1553 1553 1553
1523 1527 1529 1532 1534 1535 1537 1539 1539 1541 1542 1543 1545 1546 1546 1547 1548 1548 1548 1548 1548 1548 1548 1548 1549 1549 1550 1550 1549 1550 1550 1551 1551 1551 1552 1552 1551 1552 1552 1552 1551 1551 1551
1520 1523 1526 1529 1531 1533 1535 1537 1538 1539 1541 1542 1544 1545 1545 1546 1546 1547 1547 1548 1548 1548 1548 1548 1548 1548 1549 1548 1548 1549 1549 1549 1550 1550 1550 1550 1550 1551 1551 1551 1550 1550 1549
1517 1520 1523 1526 1529 1531 1533 1534 1536 1537 1539 1540 1541 1543 1544 1545 1546 1546 1546 1546 1547 1547 1547 1547 1547 1547 1547 1547 1547 1547 1547 1548 1549 1549 1549 1549 1549 1549 1549 1549 1549 1549 1548
1514 1517 1521 1524 1527 1529 1531 1533 1533 1535 1537 1538 1540 1540 1542 1543 1544 1544 1545 1545 1546 1546 1546 1545 1545 1545 1546 1545 1545 1546 1546 1546 1546 1547 1547 1548 1547 1547 1547 1547 1547 1547 1547
1510 1514 1517 1520 1523 1526 1528 1530 1531 1533 1535 1536 1537 1538 1539 1540 1541 1542 1543 1544 1545 1544 1544 1544 1544 1544 1543 1543 1544 1543 1544 1544 1544 1545 1545 1546 1546 1546 1546 1546 1545 1545 1545
1507 1511 1514 1517 1520 1523 1525 1528 1529 1530 1532 1534 1535 1536 1537 1539 1540 1540 1541 1542 1543 1543 1542 1542 1542 1542 1542 1542 1542 1542 1542 1542 1543 1543 1543 1543 1544 1544 1544 1544 1544 1543 1543
1505 1508 1511 1514 1517 1519 1522 1524 1526 1528 1529 1531 1532 1533 1535 1536 1537 1538 1538 1540 1540 1540 1540 1540 1540 1540 1540 1540 1540 1540 1540 1540 1541 1542 1541 1541 1542 1542 1542 1542 1542 1542 1541
1503 1506 1509 1512 1514 1517 1519 1521 1523 1525 1526 1528 1530 1531 1532 1533 1534 1535 1536 1537 1537 1537 1537 1537 1537 1537 1537 1537 1537 1538 1537 1538 1539 1539 1539 1539 1540 1540 1539 1539 1539 1539 1539
1501 1503 1506 1509 1512 1514 1516 1518 1520 1522 1523 1525 1527 1528 1529 1530 1531 1532 1533 1534 1534 1534 1534 1534 1534 1534 1534 1535 1535 1536 1536 1536 1536 1537 1537 1537 1537 1537 1537 1537 1537 1537 1537
1499 1502 1504 1507 1509 1512 1514 1515 1517 1518 1520 1522 1523 1525 1526 1528 1529 1529 1530 1530 1531 1531 1531 1531 1530 1531 1531 1532 1532 1532 1533 1534 1534 1535 1535 1535 1535 1534 1535 1535 1535 1534 1534
1497 1500 1502 1504 1506 1509 1510 1512 1514 1515 1517 1519 1520 1522 1523 1524 1525 1526 1527 1528 1528 1528 1528 1528 1528 1528 1529 1529 1529 1530 1530 1531 1531 1532 1532 1532 1532 1532 1532 1532 1532 1532 1532
1496 1498 1500 1502 1504 1505 1507 1509 1511 1513 1514 1516 1517 1518 1520 1521 1522 1523 1524 1525 1525 1525 1525 1526 1525 1525 1525 1526 1527 1527 1527 1528 1528 1529 1529 1529 1529 1529 1529 1529 1529 1529 1529
1495 1496 1498 1499 1500 1502 1504 1505 1507 1509 1511 1513 1514 1515 1517 1518 1519 1520 1521 1521 1522 1522 1522 1522 1523 1523 1523 1523 1524 1524 1525 1525 1526 1526 1526 1526 1526 1526 1526 1527 1527 1527 1526
1493 1494 1495 1497 1497 1499 1500 1502 1503 1505 1507 1509 1511 1512 1514 1515 1516 1517 1517 1518 1519 1519 1519 1519 1520 1520 1520 1520 1520 1521 1521 1522 1523 1523 1523 1523 1523 1523 1523 1523 1523 1523 1523
1491 1492 1493 1494 1495 1496 1497 1498 1500 1502 1504 1506 1508 1509 1511 1512 1513 1514 1514 1515 1515 1516 1516 1516 1516 1516 1517 1517 1517 1517 1518 1519 1520 1520 1520 1521 1521 1520 1520 1520 1520 1520 1519
1488 1489 1491 1491 1492 1493 1495 1496 1497 1499 1501 1502 1504 1505 1507 1508 1509 1510 1511 1512 1512 1513 1513 1514 1514 1514 1514 1514 1514 1514 1515 1516 1516 1517 1517 1517 1518 1518 1517 1517 1517 1517 1516
1485 1486 1488 1489 1489 1490 1491 1492 1493 1495 1497 1499 1500 1501 1502 1504 1505 1506 1507 1508 1509 1510 1511 1511 1511 1511 1511 1511 1511 1511 1512 1512 1513 1514 1514 1514 1514 1514 1514 1513 1513 1513 1513
1483 1484 1485 1486 1486 1487 1488 1489 1491 1493 1494 1496 1497 1498 1499 1500 1502 1503 1504 1506 1507 1507 1508 1508 1509 1509 1509 1509 1509 1509 1510 1510 1511 1511 1511 1510 1510 1510 1510 1510 1510 1509 1509
1480 1481 1482 1483 1484 1484 1485 1487 1488 1490 1492 1494 1495 1496 1497 1498 1500 1501 1502 1503 1504 1505 1505 1506 1506 1506 1506 1507 1507 1507 1507 1508 1508 1509 1509 1508 1507 1507 1507 1507 1506 1506 1506
1479 1479 1480 1481 1482 1483 1484 1485 1486 1488 1490 1492 1493 1494 1495 1497 1498 1499 1500 1501 1502 1502 1503 1503 1504 1504 1504 1505 1505 1505 1505 1506 1506 1506 1506 1505 1505 1504 1504 1503 1503 1502 1502
1478 1479 1479 1480 1481 1482 1483 1484 1485 1487 1489 1490 1491 1492 1493 1495 1496 1497 1498 1499 1499 1501 1501 1502 1502 1502 1502 1503 1502 1503 1503 1503 1503 1502 1502 1502 1501 1501 1501 1500 1500 1499 1499
1478 1478 1479 1480 1481 1482 1483 1484 1485 1486 1487 1488 1490 1491 1492 1493 1494 1495 1496 1497 1498 1498 1499 1499 1500 1500 1500 1501 1500 1500 1500 1500 1500 1500 1499 1499 1498 1498 1497 1497 1496 1496 1495
1477 1478 1478 1479 1480 1482 1482 1484 1485 1485 1486 1487 1488 1490 1490 1491 1492 1493 1494 1495 1495 1496 1497 1497 1498 1498 1498 1498 1498 1498 1498 1498 1498 1497 1497 1497 1496 1495 1495 1494 1493 1492 1491
1477 1477 1478 1479 1480 1481 1482 1483 1483 1484 1485 1486 1487 1488 1489 1490 1491 1491 1492 1492 1493 1493 1494 1495 1496 1496 1496 1495 1495 1495 1495 1495 1495 1495 1495 1494 1494 1493 1492 1491 1490 1489 1488